This is the latest recevied weather packets stored in our database for station/object N9ALD. If no packets are shown the sender has not sent any weather packets the latest 10 day(s).
| Time | Temp. | Humidity | Pressure | Rain* | Wind** | Luminosity | Snow |
|---|---|---|---|---|---|---|---|
| 1777660567 | 11.11° C | 58% | 1012.9 hPa | 0 mm | - | 352 W/m² | - |
| 1777660263 | 11.11° C | 57% | 1013 hPa | 0 mm | - | 829 W/m² | - |
| 1777659960 | 11.11° C | 59% | 1013.1 hPa | 0 mm | - | 252 W/m² | - |
| 1777659657 | 11.67° C | 61% | 1012.9 hPa | 0 mm | - | 328 W/m² | - |
| 1777659354 | 12.22° C | 54% | 1012.8 hPa | 0 mm | - | 689 W/m² | - |
| 1777659051 | 11.67° C | 64% | 1012.9 hPa | 0 mm | - | 909 W/m² | - |
| 1777658749 | 11.67° C | 60% | 1013 hPa | 0 mm | - | 301 W/m² | - |
| 1777658444 | 11.11° C | 63% | 1012.9 hPa | 0 mm | - | 944 W/m² | - |
| 1777658141 | 10.56° C | 61% | 1013.1 hPa | 0 mm | - | 248 W/m² | - |
| 1777657838 | 11.67° C | 60% | 1012.9 hPa | 0 mm | - | 503 W/m² | - |
| 1777657535 | 11.11° C | 66% | 1013 hPa | 0 mm | - | 932 W/m² | - |
| 1777657233 | 10.56° C | 64% | 1012.8 hPa | 0 mm | - | 903 W/m² | - |
| 1777656930 | 10.56° C | 64% | 1012.8 hPa | 0 mm | - | 210 W/m² | - |
| 1777656627 | 10.56° C | 65% | 1012.9 hPa | 0 mm | - | 315 W/m² | - |
| 1777656322 | 10.56° C | 64% | 1013 hPa | 0 mm | - | 374 W/m² | - |
| 1777656018 | 10.56° C | 65% | 1013.1 hPa | 0 mm | - | 400 W/m² | - |
| 1777655714 | 10.56° C | 68% | 1013.1 hPa | 0 mm | - | 239 W/m² | - |
| 1777655411 | 10.56° C | 63% | 1013 hPa | 0 mm | - | 262 W/m² | - |
| 1777655108 | 10.56° C | 63% | 1012.9 hPa | 0 mm | - | 282 W/m² | - |
| 1777654805 | 10.56° C | 66% | 1012.9 hPa | 0 mm | - | 292 W/m² | - |
| 1777654503 | 10.56° C | 68% | 1012.7 hPa | 0 mm | - | 927 W/m² | - |
| 1777654200 | 10.56° C | 68% | 1012.8 hPa | 0 mm | - | 214 W/m² | - |
| 1777653898 | 10.56° C | 68% | 1012.8 hPa | 0 mm | - | 893 W/m² | - |
| 1777653594 | 10° C | 71% | 1012.9 hPa | 0 mm | - | 876 W/m² | - |
| 1777653290 | 10° C | 69% | 1012.7 hPa | 0 mm | - | 297 W/m² | - |
* Rain latest hour (hover to see other rain measurements)
** Current wind speed in m/s (hover to see current wind gust speed)